Home > Time Zones > World Clock > Weather > Egypt > Cairo > Past weeks

Flag for Egypt Weather past 2 weeks in Cairo, Egypt

Now
68 °F

Clear.


Feels Like: 68 °F
Forecast: 66 / 96 °F
Wind: 8 mph from Southeast

Location: Cairo Airport


UV Index: 7 (High)

Visibility: 10 mi


Pressure: 29.89 "Hg

Humidity: 56%

Dew point: 52 °F

Location of CairoLocation

Historic Weather in Cairo

°F

Cairo temperature yesterday

Maximum temperature yesterday: 81 °F (at 1:30 PM)
Minimum temperature yesterday: 63 °F (at 2:30 AM)
Average temperature yesterday: 71 °F

Past Weeks' High & Low Weather Summary

 TemperatureHumidityPressure
High91 °F (Apr 6, 3:00 PM)94% (Apr 17, 2:30 AM)30.12 "Hg (Apr 17, 2:30 AM)
Low54 °F (Apr 3, 5:30 AM)6% (Apr 6, 3:30 PM)29.74 "Hg (Apr 15, 3:00 AM)
Average71 °F48%29.97 "Hg
* Reported Midnight between Apr 2 and Apr 3 — Midnight between Apr 17 and Apr 18, Cairo, Weather by CustomWeather, © 2014

Note: Actual official high and low records may vary slightly from our data, if they occured in-between our weather recording intervals... More about our weather records

Advertising

Historic Weather Conditions — Data for Previous 24 hours

 ConditionsComfort  
Time TempWeatherWind HumidityBarometerVisibility
12:00 AM
Apr 18
68 °FClear.9 mph64%29.89 "Hg10 mi
11:30 PM
Apr 17
68 °FClear.10 mph69%29.89 "Hg10 mi
11:00 PM68 °FClear.12 mph69%29.89 "Hg10 mi
10:30 PM70 °FClear.13 mph69%29.89 "Hg10 mi
10:00 PM70 °FClear.13 mph64%29.89 "Hg10 mi
9:30 PM72 °FClear.9 mph53%29.89 "Hg10 mi
9:00 PM72 °FClear.9 mph41%29.89 "Hg10 mi
8:30 PM73 °FClear.9 mph36%29.89 "Hg10 mi
8:00 PM75 °FClear.9 mph34%29.86 "Hg10 mi
7:00 PM75 °FClear.9 mph31%29.86 "Hg10 mi
6:30 PM77 °FClear.9 mph30%29.86 "Hg10 mi
6:00 PM77 °FSunny.10 mph30%29.83 "Hg10 mi
5:30 PM79 °FSunny.9 mph28%29.83 "Hg10 mi
5:00 PM79 °FSunny.10 mph28%29.83 "Hg10 mi
4:30 PM79 °FSunny.14 mph26%29.83 "Hg10 mi
4:00 PM79 °FSunny.12 mph30%29.83 "Hg10 mi
3:30 PM81 °FSunny.10 mph26%29.83 "Hg10 mi
3:00 PM79 °FSunny.8 mph28%29.83 "Hg10 mi
2:30 PM81 °FSunny.14 mph28%29.83 "Hg10 mi
2:00 PM81 °FSunny.13 mph21%29.83 "Hg10 mi
1:30 PM81 °FSunny.12 mph21%29.83 "Hg10 mi
1:00 PM79 °FSunny.12 mph30%29.86 "Hg10 mi
12:30 PM77 °FSunny.8 mph39%29.86 "Hg10 mi
12:00 PM77 °FClear.9 mph42%29.86 "Hg4 mi
11:30 AM75 °FClear.9 mph50%29.89 "Hg4 mi
11:00 AM75 °FHaze.9 mph50%29.89 "Hg2 mi
10:30 AM77 °FHaze.6 mph39%29.89 "Hg2 mi
10:00 AM77 °FPassing clouds.6 mph39%29.89 "HgN/A
9:30 AM75 °FSunny.No wind39%29.89 "Hg10 mi
9:00 AM72 °FClear.No wind57%29.89 "Hg4 mi
8:30 AM70 °FFog.No wind69%29.89 "Hg2 mi
8:00 AM66 °FFog.No wind78%29.89 "Hg2 mi
7:30 AM64 °FFog.No wind83%29.89 "Hg2 mi
7:00 AM64 °FFog.No wind83%29.89 "Hg2 mi
6:30 AM63 °FFog.5 mph88%29.89 "Hg2 mi
6:00 AM63 °FFog.5 mph88%29.89 "Hg2 mi
5:30 AM63 °FFog.No wind88%29.86 "Hg1 mi
5:00 AM63 °FFog.No wind88%29.86 "Hg1 mi
4:30 AM63 °FFog.No wind88%29.86 "Hg1 mi
4:00 AM63 °FFog.5 mph88%29.86 "Hg1 mi
3:30 AM63 °FFog.7 mph88%29.86 "Hg1 mi
3:00 AM63 °FFog.7 mph94%29.86 "Hg1 mi
2:30 AM63 °FFog.2 mph94%29.89 "Hg2 mi
2:00 AM64 °FFog.3 mph88%29.89 "Hg2 mi
1:30 AM64 °FClear.5 mph88%29.89 "Hg4 mi
1:00 AM64 °FClear.6 mph88%29.89 "Hg4 mi
Weather by CustomWeather, © 2014

See weather overview